TimeCST,TemperatureF,Dew PointF,Humidity,Sea Level PressureIn,VisibilityMPH,Wind Direction,Wind SpeedMPH,Gust SpeedMPH,PrecipitationIn,Events,Conditions,WindDirDegrees,DateUTC
12:56 AM,21.0,15.1,78,30.33,-9999.0,North,10.4,-,N/A,,Unknown,360,2014-02-02 06:56:00
1:56 AM,19.9,15.1,81,30.31,-9999.0,NNE,10.4,-,N/A,,Unknown,20,2014-02-02 07:56:00
2:56 AM,19.9,12.9,74,30.32,-9999.0,North,10.4,-,N/A,,Unknown,10,2014-02-02 08:56:00
3:56 AM,19.0,12.9,77,30.32,-9999.0,North,9.2,-,N/A,,Unknown,10,2014-02-02 09:56:00
4:56 AM,18.0,10.0,71,30.33,-9999.0,NNE,11.5,-,N/A,,Unknown,20,2014-02-02 10:56:00
5:56 AM,17.1,9.0,71,30.34,-9999.0,NNE,11.5,-,N/A,,Unknown,20,2014-02-02 11:56:00
6:56 AM,17.1,9.0,71,30.34,-9999.0,NNE,12.7,-,N/A,,Unknown,20,2014-02-02 12:56:00
7:56 AM,17.1,8.1,68,30.35,-9999.0,NNE,11.5,-,N/A,,Unknown,30,2014-02-02 13:56:00
8:56 AM,17.1,8.1,68,30.37,-9999.0,North,11.5,-,N/A,,Unknown,10,2014-02-02 14:56:00
9:56 AM,19.9,8.1,60,30.42,-9999.0,NNE,10.4,-,N/A,,Unknown,30,2014-02-02 15:56:00
10:56 AM,23.0,8.1,53,30.41,-9999.0,North,11.5,-,N/A,,Unknown,10,2014-02-02 16:56:00
11:56 AM,26.1,7.0,44,30.39,-9999.0,NNE,9.2,-,N/A,,Unknown,30,2014-02-02 17:56:00
12:56 PM,28.0,5.0,38,30.36,-9999.0,ENE,8.1,-,N/A,,Unknown,60,2014-02-02 18:56:00
1:56 PM,30.0,6.1,36,30.33,-9999.0,NNE,4.6,-,N/A,,Unknown,30,2014-02-02 19:56:00
2:56 PM,32.0,6.1,34,30.31,-9999.0,Variable,3.5,-,N/A,,Unknown,0,2014-02-02 20:56:00
3:56 PM,32.0,5.0,32,30.30,-9999.0,Variable,5.8,-,N/A,,Unknown,0,2014-02-02 21:56:00
4:56 PM,32.0,5.0,32,30.30,-9999.0,ENE,4.6,-,N/A,,Unknown,60,2014-02-02 22:56:00
5:56 PM,28.0,5.0,38,30.31,-9999.0,East,5.8,-,N/A,,Unknown,80,2014-02-02 23:56:00
6:56 PM,26.1,5.0,41,30.32,-9999.0,East,6.9,-,N/A,,Unknown,90,2014-02-03 00:56:00
7:56 PM,21.9,6.1,51,30.33,-9999.0,East,6.9,-,N/A,,Unknown,90,2014-02-03 01:56:00
8:56 PM,21.9,7.0,53,30.32,-9999.0,East,5.8,-,N/A,,Unknown,100,2014-02-03 02:56:00
9:56 PM,21.0,8.1,57,30.33,-9999.0,ESE,4.6,-,N/A,,Unknown,110,2014-02-03 03:56:00
10:56 PM,19.9,8.1,60,30.31,-9999.0,ESE,5.8,-,N/A,,Unknown,110,2014-02-03 04:56:00
11:56 PM,17.1,8.1,68,30.34,-9999.0,Calm,Calm,-,N/A,,Unknown,0,2014-02-03 05:56:00